RFTSAT (44417 NORAD) Tracking and Keplerian Element Data

This shows tracking and keplerian element data for the satellite.

Feedback or suggestion? Click here.




ElementValue
Catalog44417
NameRFTSAT
Epoch Orbit3673
Epoch Day94.07580425
Epoch Year2020
RAAN35.6742
Inclination51.6432
Eccentricity0.0012344
Argument of Perigee48.0603
Mean Anonmoly312.1427
Mean Motion15.30170238
Decay Rate1.065E-05
L11 44417U 19022G 20094.07580425 .00001065 00000-0 48270-4 0 9997
L22 44417 51.6432 35.6742 0012344 48.0603 312.1427 15.30170238 36734

Live tracking and technical data element details for RFTSAT (NORAD 44417). RFTSAT can be tracked NOW for your location showing map with azimuth and elevation plus other details from your city location.

Track the satellite on the map from your city or location and see movement details for azimuth, elevation, latitude, longitude, range, height, and movement on the map or in text.







IsCatalogInMostPopularTable: catalog: 44417, numindb: 14
Update: records affected: 1



GetName: 44417 RFTSAT

Hit Count: updated at: Sat, 04 Apr 2020 09:06:25 GMT